Regional Weather Roundup
Issued by NWS

Home | Current Version | Previous Version | Graphics & Text | Print | Product List | Glossary On
Versions: 1 2 3 4 5 6 7 8 9 10 11 12 13 14 15 16 17 18 19 20 21 22 23 24 25 26 27 28 29 30 31 32 33 34 35 36 37 38 39 40 41 42 43 44 45 46 47 48 49 50
000
ASUS43 KFSD 290110
RWRSD

WEATHER ROUNDUP FOR SOUTH DAKOTA
NATIONAL WEATHER SERVICE SIOUX FALLS SD
800 PM CDT TUE JUL 28 2015

NOTE: "FAIR" INDICATES FEW OR NO CLOUDS BELOW 12,000 FEET WITH NO
SIGNIFICANT WEATHER AND/OR OBSTRUCTIONS TO VISIBILITY.


SDZ001>005-009-010-012>017-290200-
NORTHWEST AND NORTH CENTRAL SOUTH DAKOTA

CITY           SKY/WX    TMP DP  RH WIND       PRES   REMARKS
BUFFALO          N/A     71  37  28 W31G41    29.97S
FAITH            N/A     72  41  32 NW25G32   30.02R
MOBRIDGE       MOSUNNY   74  49  41 W26G37    29.91R
$$

SDZ012>016-024>037-041>051-057-063-072>074-290200-
SOUTHWEST AND SOUTH CENTRAL SOUTH DAKOTA

CITY           SKY/WX    TMP DP  RH WIND       PRES   REMARKS
RAPID CTY ARPT SUNNY     71  45  39 N14       30.09R
PIERRE         SUNNY     77  46  33 NW25G31   29.98R
CUSTER         SUNNY     64  35  34 NW12G21   30.20R
ELLSWORTH AFB  SUNNY     73  42  33 N16       30.08R
PHILIP         SUNNY     76  45  33 NW15G25   30.02R
PINE RIDGE     SUNNY     76  36  23 NW8       30.09R
SPEARFISH      FAIR      66  41  39 NW17      30.14R
WINNER         FAIR      80  48  32 NW9       30.01R
$$

SDZ004>011-016>023-039-040-290200-
NORTHEAST SOUTH DAKOTA

CITY           SKY/WX    TMP DP  RH WIND       PRES   REMARKS
ABERDEEN       CLEAR     75  49  39 W18G30    29.89R
WATERTOWN      CLEAR     75  53  46 W13G24    29.91R
BROOKINGS      CLEAR     73  55  53 W8        29.95R
SISSETON         N/A     74  52  46 W17G25    29.85R
$$

SDZ017-020-022-023-036>040-048>070-290200-
SOUTHEAST SOUTH DAKOTA

CITY           SKY/WX    TMP DP  RH WIND       PRES   REMARKS
SIOUX FALLS    PTCLDY    76  57  51 W5        29.94S
HURON          CLEAR     76  54  46 W12       29.93R
CHAMBERLAIN    SUNNY     77  48  35 NW10G21   29.98R
MITCHELL       CLEAR     79  51  37 W12       29.95
YANKTON        CLEAR     75  59  57 W6        29.95R
$$

ABBREVIATIONS USED IN REMARKS
   TC - TEMPERATURE IN CELSIUS
  WCI - WIND CHILL INDEX
   HX - HEAT INDEX
  VSB - VISIBILITY




USA.gov is the U.S. government's official web portal to all federal, state and local government web resources and services.